Regional Weather Roundup
Issued by NWS Bismarck, ND

Current Version | Previous Version | Text Only | Print | Product List | Glossary On
Versions: 1 2 3 4 5 6 7 8 9 10 11 12 13 14 15 16 17 18 19 20 21 22 23 24 25 26 27 28 29 30 31 32 33 34 35 36 37 38 39 40 41 42 43 44 45 46 47 48 49 50
000
ASUS43 KBIS 030110
RWRBIS

NWR BROADCAST TEXT
NATIONAL WEATHER SERVICE BISMARCK ND
800 PM CDT TUE JUN 02 2020

NOTE: "FAIR" INDICATES FEW OR NO CLOUDS BELOW 12,000 FEET WITH NO
SIGNIFICANT WEATHER AND/OR OBSTRUCTIONS TO VISIBILITY.


CITY           SKY/WX    TMP DP  RH WIND       PRES   REMARKS
WILLISTON      FAIR      76  36  23 NW13      29.99S
MINOT          SUNNY     75  37  25 W14       29.92S
MINOT AFB      SUNNY     76  37  24 NW15      29.91R
BISMARCK       SUNNY     81  36  19 NW16G23   29.94S
DICKINSON      SUNNY     74  36  25 W14       30.00F
GARRISON         N/A     76  39  26 NW13G23   29.94S
HETTINGER ARPT SUNNY     74  40  29 NW9       30.03S
JAMESTOWN      SUNNY     77  48  35 NW14      29.89S
CARRINGTON     FAIR      79  43  27 W15G22    29.91S
HAZEN          FAIR      77  41  27 NW15G22   29.97S HAZE
MANDAN         FAIR      75  45  33 NW14      29.96S
OAKES          FAIR      79  57  47 NW15      29.89S
RUGBY          FAIR      77  37  24 NW21      29.89R
STANLEY        FAIR      73  37  27 NW14G22   29.97F
TIOGA          FAIR      73  34  23 NW15      29.99S
WATFORD CITY   LGT RAIN  75  36  23 NW14      29.98S
$$

CITY           SKY/WX    TMP DP  RH WIND       PRES   REMARKS
GRAND FORKS    MOSUNNY   81  43  26 W14       29.80F
GRAND FORKS AF SUNNY     81  46  28 W17       29.82F
DEVILS LAKE    SUNNY     78  39  24 NW17      29.87R
FARGO          SUNNY     83  48  29 W16G26    29.83R
CANDO          FAIR      77  37  24 NW17      29.88S HAZE
CAVALIER       FAIR      81  39  22 NW17      29.78S
GRAFTON        FAIR      79  50  36 W12G18    29.80F
GWINNER        CLEAR     81  54  39 W12G18    29.87S
LANGDON        FAIR      79  37  22 NW25G36   29.85R
ROLLA          FAIR      75  36  23 NW21      29.89S
WALHALLA       FAIR      81  39  22 NW18G26   29.79S
$$

CITY           SKY/WX    TMP DP  RH WIND       PRES   REMARKS
ABERDEEN       SUNNY     83  53  35 N7        29.90S
MOBRIDGE       SUNNY     81  52  36 NW6       29.94F
BUFFALO          N/A     75  45  34 NW7       30.02F
RAPID CITY     SUNNY     75  54  47 N6        30.06F
GLASGOW        SUNNY     77  38  24 NW7       29.96F
SIDNEY         SUNNY     75  39  27 W10       30.00S
WOLF POINT     SUNNY     76  38  25 NW8       29.98F
GLENDIVE       SUNNY     73  43  33 W8        30.03F
MILES CITY     SUNNY     74  41  30 W3        30.03F
BAKER          SUNNY     71  40  32 NW8       30.06F
$$

CITY           SKY/WX    TMP DP  RH WIND       PRES   REMARKS
BILLINGS       MOSUNNY   77  41  27 SE9       30.03F
GREAT FALLS    PTSUNNY   71  39  31 W14       29.98F
REGINA         MOSUNNY   72  36  26 W10       29.93S
ESTEVAN        SUNNY     73  36  25 NW12G21   29.94S
$$




USA.gov is the U.S. government's official web portal to all federal, state and local government web resources and services.